ASA1397 KLAX-KPDX

Flight info

Callsign ASA1397
Flight time 2h 2m
Altitude 34000
Route LADYJ4 CSTRO SHIMR LMT MOXEE TMBRS4
Aircraft B738/M-SDE2E3FGHIRWXY/LB1

Departure

Time 2026-04-23 01:18
Airport Los Angeles International Airport (KLAX)

Arrival

Time 2026-04-23 03:21
Airport Portland International Airport (KPDX)
Time Latitude Longitude Altitude Speed Heading
2026-04-23 00:49 33.94101 -118.40136 125 ft 0 kts 266°
2026-04-23 01:09 33.94103 -118.40113 120 ft 2 kts 266°
2026-04-23 01:09 33.94107 -118.40093 122 ft 4 kts 209°
2026-04-23 01:10 33.94130 -118.40085 121 ft 4 kts 185°
2026-04-23 01:10 33.94147 -118.40085 123 ft 0 kts 172°
2026-04-23 01:12 33.94142 -118.40085 124 ft 4 kts 172°
2026-04-23 01:12 33.94077 -118.40075 124 ft 13 kts 173°
2026-04-23 01:12 33.94044 -118.40070 122 ft 0 kts 172°
2026-04-23 01:13 33.94042 -118.40070 122 ft 1 kts 172°
2026-04-23 01:13 33.93998 -118.40063 122 ft 12 kts 173°
2026-04-23 01:13 33.93914 -118.40047 122 ft 11 kts 153°
2026-04-23 01:13 33.93883 -118.39967 122 ft 11 kts 88°
2026-04-23 01:14 33.93891 -118.39874 125 ft 13 kts 83°
2026-04-23 01:14 33.93907 -118.39722 125 ft 23 kts 82°
2026-04-23 01:14 33.93928 -118.39514 123 ft 25 kts 83°
2026-04-23 01:14 33.93948 -118.39312 125 ft 23 kts 82°
2026-04-23 01:15 33.93969 -118.39123 123 ft 23 kts 83°
2026-04-23 01:15 33.93987 -118.38937 125 ft 22 kts 84°
2026-04-23 01:15 33.94005 -118.38760 125 ft 21 kts 83°
2026-04-23 01:15 33.94023 -118.38582 125 ft 22 kts 83°
2026-04-23 01:16 33.94041 -118.38403 120 ft 22 kts 83°
2026-04-23 01:16 33.94060 -118.38240 125 ft 15 kts 84°
2026-04-23 01:16 33.94071 -118.38120 122 ft 14 kts 83°
2026-04-23 01:16 33.94066 -118.38013 123 ft 13 kts 134°
2026-04-23 01:17 33.93989 -118.38022 123 ft 13 kts 242°
2026-04-23 01:17 33.93973 -118.38138 125 ft 19 kts 263°
2026-04-23 01:17 33.93928 -118.38572 124 ft 87 kts 263°
2026-04-23 01:17 33.93829 -118.39544 124 ft 145 kts 262°
2026-04-23 01:18 33.93701 -118.40854 563 ft 160 kts 263°
2026-04-23 01:18 33.93542 -118.42280 1174 ft 175 kts 260°
2026-04-23 01:18 33.93326 -118.43671 2223 ft 161 kts 260°
2026-04-23 01:18 33.93129 -118.45089 2509 ft 191 kts 263°
2026-04-23 01:19 33.92929 -118.46663 3179 ft 188 kts 263°
2026-04-23 01:19 33.92857 -118.48307 3641 ft 201 kts 273°
2026-04-23 01:19 33.92741 -118.50115 3704 ft 233 kts 264°
2026-04-23 01:19 33.92591 -118.52183 3852 ft 262 kts 268°
2026-04-23 01:20 33.92509 -118.53683 4250 ft 267 kts 267°
2026-04-23 01:20 33.92354 -118.55859 5157 ft 265 kts 266°
2026-04-23 01:20 33.92172 -118.58105 5869 ft 269 kts 267°
2026-04-23 01:20 33.91996 -118.60304 6839 ft 261 kts 270°
2026-04-23 01:21 33.92382 -118.62406 7508 ft 260 kts 299°
2026-04-23 01:21 33.93596 -118.63986 7758 ft 259 kts 322°
2026-04-23 01:21 33.95154 -118.65153 7957 ft 267 kts 329°
2026-04-23 01:21 33.96787 -118.66202 7923 ft 264 kts 330°
2026-04-23 01:22 33.98419 -118.67215 7990 ft 265 kts 334°
2026-04-23 01:22 34.00220 -118.67709 8006 ft 274 kts 355°
2026-04-23 01:22 34.02158 -118.67616 8005 ft 276 kts
2026-04-23 01:22 34.04047 -118.67467 8040 ft 277 kts
2026-04-23 01:23 34.05977 -118.67324 8468 ft 276 kts 360°
2026-04-23 01:23 34.07889 -118.67172 9293 ft 274 kts
2026-04-23 01:23 34.09804 -118.66831 9961 ft 284 kts
2026-04-23 01:23 34.11793 -118.66333 10254 ft 304 kts
2026-04-23 01:24 34.13936 -118.65786 10419 ft 325 kts
2026-04-23 01:24 34.16224 -118.65213 10582 ft 346 kts
2026-04-23 01:24 34.18622 -118.64629 10930 ft 357 kts
2026-04-23 01:24 34.21079 -118.64040 11513 ft 361 kts
2026-04-23 01:25 34.23553 -118.63467 12179 ft 362 kts
2026-04-23 01:25 34.26025 -118.63494 12792 ft 353 kts 345°
2026-04-23 01:25 34.28437 -118.64066 13490 ft 354 kts 342°
2026-04-23 01:25 34.30869 -118.64669 14104 ft 358 kts 342°
2026-04-23 01:26 34.33320 -118.65264 14683 ft 362 kts 343°
2026-04-23 01:26 34.35811 -118.65851 15251 ft 366 kts 343°
2026-04-23 01:26 34.38332 -118.66431 15845 ft 369 kts 343°
2026-04-23 01:26 34.40864 -118.67007 16525 ft 371 kts 343°
2026-04-23 01:27 34.43416 -118.67583 17104 ft 376 kts 343°
2026-04-23 01:27 34.46013 -118.68112 17734 ft 379 kts 344°
2026-04-23 01:27 34.48626 -118.68614 18291 ft 383 kts 344°
2026-04-23 01:27 34.51279 -118.69119 18775 ft 388 kts 344°
2026-04-23 01:28 34.53926 -118.69625 19272 ft 391 kts 344°
2026-04-23 01:28 34.56651 -118.70150 19856 ft 393 kts 343°
2026-04-23 01:28 34.59325 -118.70668 20431 ft 395 kts 343°
2026-04-23 01:28 34.62049 -118.71201 20899 ft 399 kts 343°
2026-04-23 01:29 34.64807 -118.71742 21343 ft 403 kts 343°
2026-04-23 01:29 34.67590 -118.72288 21784 ft 406 kts 343°
2026-04-23 01:29 34.70383 -118.72836 22293 ft 408 kts 342°
2026-04-23 01:29 34.73070 -118.73773 22709 ft 396 kts 326°
2026-04-23 01:30 34.75452 -118.75395 23204 ft 393 kts 322°
2026-04-23 01:30 34.77821 -118.77067 23703 ft 395 kts 322°
2026-04-23 01:30 34.80215 -118.78748 24010 ft 398 kts 322°
2026-04-23 01:30 34.82632 -118.80434 24367 ft 401 kts 322°
2026-04-23 01:31 34.85058 -118.82114 24763 ft 402 kts 323°
2026-04-23 01:31 34.87468 -118.83777 25125 ft 404 kts 323°
2026-04-23 01:31 34.89921 -118.85467 25475 ft 407 kts 323°
2026-04-23 01:31 34.92398 -118.87174 25799 ft 409 kts 323°
2026-04-23 01:32 34.94869 -118.88871 26264 ft 408 kts 323°
2026-04-23 01:32 34.97354 -118.90582 26552 ft 412 kts 323°
2026-04-23 01:32 34.99866 -118.92315 26834 ft 415 kts 323°
2026-04-23 01:32 35.02385 -118.94052 27158 ft 417 kts 322°
2026-04-23 01:33 35.04915 -118.95799 27503 ft 418 kts 322°
2026-04-23 01:33 35.07456 -118.97553 27826 ft 420 kts 322°
2026-04-23 01:33 35.10010 -118.99319 28129 ft 422 kts 322°
2026-04-23 01:33 35.12566 -119.01087 28427 ft 424 kts 322°
2026-04-23 01:34 35.15135 -119.02867 28722 ft 425 kts 322°
2026-04-23 01:34 35.17715 -119.04653 29080 ft 425 kts 322°
2026-04-23 01:34 35.20250 -119.06408 29524 ft 423 kts 322°
2026-04-23 01:34 35.22806 -119.08179 29993 ft 421 kts 322°
2026-04-23 01:35 35.25363 -119.09956 30112 ft 426 kts 322°
2026-04-23 01:35 35.27950 -119.11757 30128 ft 427 kts 322°
2026-04-23 01:35 35.33085 -119.15325 30123 ft 420 kts 322°
2026-04-23 01:36 35.38161 -119.18863 30142 ft 419 kts 322°
2026-04-23 01:36 35.43235 -119.22405 30136 ft 420 kts 322°
2026-04-23 01:37 35.45908 -119.23950 30119 ft 434 kts 334°
2026-04-23 01:37 35.48872 -119.24855 30152 ft 439 kts 337°
2026-04-23 01:37 35.54800 -119.26544 30141 ft 440 kts 337°
2026-04-23 01:38 35.60757 -119.28274 30147 ft 439 kts 336°
2026-04-23 01:38 35.66717 -119.30045 30543 ft 441 kts 336°
2026-04-23 01:39 35.69681 -119.30929 31012 ft 436 kts 336°
2026-04-23 01:39 35.72616 -119.31804 31489 ft 432 kts 336°
2026-04-23 01:39 35.75518 -119.32671 31953 ft 428 kts 336°
2026-04-23 01:39 35.78406 -119.33538 32317 ft 426 kts 335°
2026-04-23 01:40 35.81291 -119.34407 32627 ft 425 kts 335°
2026-04-23 01:40 35.84165 -119.35275 32939 ft 425 kts 335°
2026-04-23 01:40 35.87032 -119.36140 33301 ft 423 kts 335°
2026-04-23 01:40 35.89884 -119.36999 33659 ft 421 kts 335°
2026-04-23 01:41 35.92726 -119.37856 33975 ft 420 kts 335°
2026-04-23 01:41 35.95569 -119.38716 34151 ft 422 kts 335°
2026-04-23 01:41 36.01302 -119.40456 34149 ft 425 kts 335°
2026-04-23 01:42 36.06979 -119.42167 34144 ft 419 kts 335°
2026-04-23 01:42 36.12626 -119.43874 34157 ft 417 kts 335°
2026-04-23 01:43 36.18262 -119.45586 34153 ft 417 kts 335°
2026-04-23 01:43 36.23891 -119.47299 34153 ft 417 kts 334°
2026-04-23 01:44 36.29529 -119.49016 34155 ft 417 kts 334°
2026-04-23 01:44 36.35169 -119.50735 34156 ft 417 kts 334°
2026-04-23 01:45 36.40763 -119.52443 34165 ft 417 kts 334°
2026-04-23 01:45 36.46413 -119.54170 34166 ft 418 kts 334°
2026-04-23 01:46 36.52059 -119.55898 34166 ft 418 kts 334°
2026-04-23 01:46 36.57717 -119.57632 34156 ft 418 kts 334°
2026-04-23 01:47 36.63364 -119.59366 34157 ft 418 kts 334°
2026-04-23 01:47 36.69023 -119.61106 34160 ft 418 kts 334°
2026-04-23 01:48 36.74624 -119.62830 34160 ft 418 kts 334°
2026-04-23 01:48 36.80263 -119.64569 34165 ft 417 kts 334°
2026-04-23 01:49 36.85900 -119.66311 34159 ft 417 kts 334°
2026-04-23 01:49 36.91529 -119.68052 34163 ft 416 kts 334°
2026-04-23 01:50 36.97154 -119.69795 34166 ft 416 kts 334°
2026-04-23 01:50 37.02775 -119.71539 34162 ft 416 kts 334°
2026-04-23 01:51 37.08386 -119.73283 34172 ft 415 kts 334°
2026-04-23 01:51 37.13985 -119.75025 34170 ft 414 kts 334°
2026-04-23 01:52 37.19549 -119.76760 34173 ft 414 kts 334°
2026-04-23 01:52 37.25143 -119.78507 34165 ft 414 kts 334°
2026-04-23 01:53 37.30719 -119.80250 34176 ft 413 kts 334°
2026-04-23 01:53 37.36304 -119.81999 34171 ft 413 kts 334°
2026-04-23 01:54 37.41881 -119.83749 34171 ft 413 kts 334°
2026-04-23 01:54 37.47465 -119.85503 34173 ft 413 kts 334°
2026-04-23 01:55 37.53034 -119.87255 34193 ft 412 kts 334°
2026-04-23 01:55 37.58600 -119.89008 34168 ft 411 kts 334°
2026-04-23 01:56 37.64134 -119.90754 34204 ft 411 kts 334°
2026-04-23 01:56 37.69701 -119.92517 34205 ft 413 kts 334°
2026-04-23 01:57 37.75283 -119.94284 34200 ft 413 kts 334°
2026-04-23 01:57 37.80865 -119.96052 34205 ft 413 kts 334°
2026-04-23 01:58 37.86398 -119.97808 34195 ft 413 kts 334°
2026-04-23 01:58 37.91977 -119.99583 34211 ft 412 kts 334°
2026-04-23 01:59 37.97543 -120.01357 34209 ft 412 kts 334°
2026-04-23 01:59 38.03117 -120.03136 34203 ft 413 kts 334°
2026-04-23 02:00 38.08698 -120.04919 34212 ft 413 kts 334°
2026-04-23 02:00 38.14277 -120.06705 34208 ft 413 kts 335°
2026-04-23 02:01 38.19860 -120.08495 34220 ft 414 kts 335°
2026-04-23 02:01 38.25420 -120.10329 34218 ft 411 kts 333°
2026-04-23 02:02 38.30872 -120.12458 34210 ft 409 kts 332°
2026-04-23 02:02 38.36261 -120.14640 34216 ft 409 kts 332°
2026-04-23 02:03 38.41707 -120.16822 34216 ft 410 kts 333°
2026-04-23 02:03 38.47171 -120.18990 34220 ft 411 kts 333°
2026-04-23 02:04 38.52643 -120.21153 34220 ft 412 kts 333°
2026-04-23 02:04 38.57196 -120.22954 34208 ft 412 kts 333°
2026-04-23 02:05 38.62684 -120.25129 34219 ft 413 kts 333°
2026-04-23 02:05 38.68177 -120.27309 34225 ft 414 kts 334°
2026-04-23 02:06 38.73687 -120.29500 34219 ft 415 kts 334°
2026-04-23 02:06 38.79169 -120.31683 34211 ft 415 kts 334°
2026-04-23 02:07 38.84684 -120.33882 34223 ft 415 kts 334°
2026-04-23 02:07 38.90209 -120.36090 34227 ft 416 kts 334°
2026-04-23 02:08 38.95733 -120.38300 34227 ft 416 kts 334°
2026-04-23 02:08 39.01264 -120.40516 34239 ft 415 kts 334°
2026-04-23 02:09 39.06789 -120.42734 34218 ft 415 kts 335°
2026-04-23 02:09 39.12292 -120.44946 34222 ft 414 kts 335°
2026-04-23 02:10 39.17750 -120.47144 34250 ft 413 kts 335°
2026-04-23 02:10 39.23235 -120.49358 34225 ft 412 kts 335°
2026-04-23 02:11 39.28707 -120.51569 34243 ft 412 kts 335°
2026-04-23 02:11 39.34171 -120.53781 34234 ft 411 kts 335°
2026-04-23 02:12 39.39638 -120.55998 34242 ft 411 kts 335°
2026-04-23 02:12 39.45094 -120.58214 34250 ft 411 kts 335°
2026-04-23 02:13 39.50567 -120.60441 34249 ft 412 kts 335°
2026-04-23 02:13 39.56032 -120.62668 34253 ft 412 kts 335°
2026-04-23 02:14 39.61467 -120.64886 34246 ft 412 kts 335°
2026-04-23 02:14 39.66932 -120.67120 34235 ft 411 kts 336°
2026-04-23 02:15 39.75128 -120.70477 34239 ft 413 kts 336°
2026-04-23 02:16 39.80590 -120.72720 34238 ft 412 kts 336°
2026-04-23 02:16 39.86075 -120.74976 34229 ft 414 kts 336°
2026-04-23 02:17 39.91574 -120.77241 34238 ft 415 kts 336°
2026-04-23 02:17 39.97098 -120.79520 34237 ft 417 kts 337°
2026-04-23 02:18 40.02646 -120.81813 34240 ft 418 kts 337°
2026-04-23 02:18 40.08161 -120.84096 34220 ft 420 kts 337°
2026-04-23 02:19 40.13736 -120.86408 34230 ft 420 kts 338°
2026-04-23 02:19 40.19315 -120.88725 34204 ft 421 kts 338°
2026-04-23 02:20 40.24894 -120.91047 34204 ft 421 kts 338°
2026-04-23 02:20 40.30483 -120.93377 34208 ft 421 kts 338°
2026-04-23 02:21 40.36075 -120.95712 34215 ft 422 kts 338°
2026-04-23 02:21 40.41684 -120.98058 34224 ft 423 kts 339°
2026-04-23 02:22 40.47262 -121.00396 34217 ft 424 kts 339°
2026-04-23 02:22 40.52882 -121.02755 34225 ft 424 kts 339°
2026-04-23 02:23 40.58515 -121.05123 34225 ft 425 kts 339°
2026-04-23 02:23 40.62288 -121.06712 34230 ft 425 kts 340°
2026-04-23 02:24 40.66457 -121.08470 34229 ft 426 kts 340°
2026-04-23 02:25 40.72100 -121.10853 34225 ft 426 kts 340°
2026-04-23 02:25 40.77751 -121.13244 34228 ft 426 kts 340°
2026-04-23 02:26 40.83392 -121.15635 34221 ft 426 kts 340°
2026-04-23 02:26 40.89013 -121.18021 34217 ft 425 kts 341°
2026-04-23 02:27 40.94647 -121.20418 34221 ft 425 kts 341°
2026-04-23 02:27 41.00268 -121.22812 34215 ft 424 kts 341°
2026-04-23 02:28 41.05841 -121.25192 34216 ft 423 kts 341°
2026-04-23 02:28 41.11435 -121.27584 34214 ft 422 kts 341°
2026-04-23 02:29 41.17020 -121.29977 34218 ft 421 kts 342°
2026-04-23 02:29 41.22603 -121.32373 34218 ft 421 kts 342°
2026-04-23 02:30 41.28176 -121.34769 34225 ft 421 kts 342°
2026-04-23 02:30 41.33755 -121.37172 34230 ft 422 kts 342°
2026-04-23 02:31 41.39338 -121.39581 34231 ft 423 kts 342°
2026-04-23 02:31 41.44949 -121.42006 34231 ft 425 kts 343°
2026-04-23 02:32 41.50587 -121.44448 34221 ft 427 kts 343°
2026-04-23 02:32 41.56165 -121.46868 34225 ft 429 kts 343°
2026-04-23 02:33 41.61863 -121.49344 34216 ft 432 kts 343°
2026-04-23 02:33 41.67557 -121.51823 34208 ft 434 kts 344°
2026-04-23 02:34 41.73311 -121.54334 34202 ft 435 kts 344°
2026-04-23 02:34 41.79068 -121.56851 34197 ft 436 kts 344°
2026-04-23 02:35 41.84838 -121.59378 34195 ft 436 kts 344°
2026-04-23 02:35 41.90609 -121.61910 34183 ft 436 kts 344°
2026-04-23 02:36 41.96344 -121.64431 34185 ft 436 kts 344°
2026-04-23 02:36 42.02117 -121.66974 34184 ft 436 kts 344°
2026-04-23 02:37 42.07884 -121.69519 34185 ft 436 kts 344°
2026-04-23 02:37 42.13655 -121.72071 34183 ft 436 kts 344°
2026-04-23 02:38 42.19401 -121.74731 34182 ft 437 kts 342°
2026-04-23 02:38 42.25111 -121.77602 34184 ft 437 kts 342°
2026-04-23 02:39 42.30808 -121.80485 34191 ft 438 kts 342°
2026-04-23 02:39 42.36522 -121.83354 34183 ft 438 kts 342°
2026-04-23 02:40 42.42242 -121.86217 34191 ft 438 kts 342°
2026-04-23 02:40 42.47970 -121.89085 34192 ft 439 kts 342°
2026-04-23 02:41 42.53695 -121.91956 34201 ft 439 kts 342°
2026-04-23 02:41 42.59428 -121.94837 34209 ft 439 kts 342°
2026-04-23 02:42 42.65156 -121.97724 34212 ft 439 kts 342°
2026-04-23 02:42 42.70887 -122.00617 34215 ft 439 kts 342°
2026-04-23 02:43 42.76621 -122.03518 34224 ft 439 kts 342°
2026-04-23 02:43 42.82345 -122.06423 34223 ft 439 kts 342°
2026-04-23 02:44 42.88032 -122.09309 34223 ft 439 kts 341°
2026-04-23 02:44 42.93763 -122.12221 34233 ft 439 kts 341°
2026-04-23 02:45 42.99485 -122.15137 34238 ft 438 kts 341°
2026-04-23 02:45 43.05191 -122.18051 34240 ft 438 kts 341°
2026-04-23 02:46 43.10885 -122.20965 34245 ft 437 kts 341°
2026-04-23 02:46 43.16574 -122.23883 34243 ft 436 kts 340°
2026-04-23 02:47 43.22251 -122.26799 34247 ft 435 kts 340°
2026-04-23 02:47 43.27920 -122.29718 34248 ft 435 kts 340°
2026-04-23 02:48 43.33587 -122.32641 34246 ft 435 kts 340°
2026-04-23 02:48 43.39212 -122.35549 34256 ft 434 kts 340°
2026-04-23 02:49 43.44885 -122.38487 34249 ft 435 kts 340°
2026-04-23 02:49 43.50547 -122.41425 34250 ft 435 kts 340°
2026-04-23 02:50 43.56222 -122.44377 34251 ft 435 kts 340°
2026-04-23 02:50 43.61885 -122.47328 34251 ft 435 kts 340°
2026-04-23 02:50 43.64690 -122.48791 33930 ft 440 kts 340°
2026-04-23 02:51 43.67551 -122.50285 33511 ft 436 kts 340°
2026-04-23 02:51 43.70370 -122.51759 33021 ft 431 kts 339°
2026-04-23 02:51 43.73161 -122.53220 32580 ft 425 kts 339°
2026-04-23 02:51 43.75909 -122.54660 32142 ft 420 kts 339°
2026-04-23 02:52 43.78637 -122.56091 31691 ft 416 kts 339°
2026-04-23 02:52 43.81328 -122.57504 31260 ft 412 kts 339°
2026-04-23 02:52 43.83096 -122.58432 30970 ft 409 kts 339°
2026-04-23 02:52 43.85747 -122.59827 30540 ft 405 kts 339°
2026-04-23 02:53 43.88373 -122.61208 30084 ft 401 kts 339°
2026-04-23 02:53 43.90968 -122.62576 29637 ft 397 kts 339°
2026-04-23 02:53 43.94362 -122.64366 29062 ft 390 kts 339°
2026-04-23 02:53 43.96067 -122.65266 28776 ft 387 kts 339°
2026-04-23 02:54 43.98571 -122.66589 28343 ft 382 kts 339°
2026-04-23 02:54 44.01042 -122.67896 27924 ft 378 kts 339°
2026-04-23 02:54 44.01836 -122.68316 27781 ft 377 kts 339°
2026-04-23 02:54 44.03499 -122.69197 27514 ft 374 kts 339°
2026-04-23 02:55 44.05924 -122.70482 27089 ft 370 kts 339°
2026-04-23 02:55 44.08287 -122.71734 26683 ft 367 kts 339°
2026-04-23 02:55 44.10697 -122.73013 26261 ft 364 kts 339°
2026-04-23 02:55 44.13033 -122.74201 25865 ft 360 kts 344°
2026-04-23 02:56 44.15475 -122.74913 25481 ft 357 kts 353°
2026-04-23 02:56 44.17933 -122.75087 25244 ft 352 kts
2026-04-23 02:56 44.20409 -122.74876 25017 ft 362 kts
2026-04-23 02:56 44.22928 -122.74609 24684 ft 361 kts
2026-04-23 02:57 44.25422 -122.74334 24310 ft 358 kts
2026-04-23 02:57 44.27898 -122.74067 23900 ft 355 kts
2026-04-23 02:57 44.30358 -122.73811 23444 ft 353 kts
2026-04-23 02:57 44.32799 -122.73562 23000 ft 350 kts
2026-04-23 02:58 44.35212 -122.73321 22600 ft 346 kts
2026-04-23 02:58 44.37603 -122.73083 22189 ft 343 kts
2026-04-23 02:58 44.39970 -122.72850 21782 ft 340 kts
2026-04-23 02:58 44.42320 -122.72618 21388 ft 336 kts
2026-04-23 02:59 44.44647 -122.72388 20990 ft 334 kts
2026-04-23 02:59 44.46962 -122.72159 20600 ft 332 kts
2026-04-23 02:59 44.49225 -122.71935 20227 ft 329 kts
2026-04-23 02:59 44.51535 -122.71707 19830 ft 327 kts
2026-04-23 03:00 44.53771 -122.71485 19457 ft 326 kts
2026-04-23 03:00 44.56023 -122.71262 19082 ft 324 kts
2026-04-23 03:00 44.58253 -122.71041 18865 ft 317 kts
2026-04-23 03:00 44.60462 -122.70820 18415 ft 318 kts
2026-04-23 03:01 44.62662 -122.70600 18003 ft 316 kts
2026-04-23 03:01 44.64863 -122.70379 17487 ft 318 kts
2026-04-23 03:01 44.67069 -122.70157 17094 ft 316 kts
2026-04-23 03:01 44.69256 -122.69937 16704 ft 314 kts
2026-04-23 03:02 44.71431 -122.69718 16327 ft 312 kts
2026-04-23 03:02 44.73593 -122.69500 15966 ft 309 kts
2026-04-23 03:02 44.75733 -122.69285 15599 ft 307 kts
2026-04-23 03:02 44.77856 -122.69071 15248 ft 305 kts
2026-04-23 03:03 44.79964 -122.68858 14887 ft 303 kts
2026-04-23 03:03 44.82055 -122.68648 14590 ft 299 kts
2026-04-23 03:03 44.84123 -122.68440 14241 ft 297 kts
2026-04-23 03:03 44.86185 -122.68232 13872 ft 296 kts
2026-04-23 03:04 44.88231 -122.68027 13487 ft 294 kts
2026-04-23 03:04 44.90238 -122.67824 13130 ft 292 kts
2026-04-23 03:04 44.92238 -122.67622 12981 ft 283 kts
2026-04-23 03:04 44.94169 -122.67426 12852 ft 274 kts
2026-04-23 03:05 44.96038 -122.67237 12737 ft 265 kts
2026-04-23 03:05 44.97875 -122.67051 12456 ft 264 kts
2026-04-23 03:05 44.99697 -122.66868 12173 ft 262 kts
2026-04-23 03:05 45.01510 -122.66684 11880 ft 261 kts
2026-04-23 03:06 45.03314 -122.66501 11590 ft 260 kts
2026-04-23 03:06 45.05111 -122.66319 11305 ft 259 kts
2026-04-23 03:06 45.06909 -122.66136 11019 ft 258 kts
2026-04-23 03:06 45.08699 -122.65954 10729 ft 258 kts
2026-04-23 03:07 45.10490 -122.65772 10438 ft 257 kts
2026-04-23 03:07 45.12274 -122.65590 10230 ft 254 kts
2026-04-23 03:07 45.14009 -122.65412 10107 ft 247 kts
2026-04-23 03:07 45.15716 -122.65239 9884 ft 248 kts
2026-04-23 03:08 45.17461 -122.65063 9610 ft 254 kts
2026-04-23 03:08 45.19249 -122.64882 9326 ft 260 kts
2026-04-23 03:08 45.21064 -122.64697 9031 ft 261 kts
2026-04-23 03:08 45.22882 -122.64510 8718 ft 260 kts
2026-04-23 03:09 45.24675 -122.64241 8419 ft 262 kts 12°
2026-04-23 03:09 45.26307 -122.63128 8149 ft 265 kts 29°
2026-04-23 03:09 45.27596 -122.61964 7902 ft 265 kts 29°
2026-04-23 03:09 45.29146 -122.60554 7615 ft 264 kts 30°
2026-04-23 03:10 45.30696 -122.59146 7335 ft 264 kts 30°
2026-04-23 03:10 45.32242 -122.57745 7051 ft 264 kts 30°
2026-04-23 03:10 45.33791 -122.56347 6774 ft 263 kts 30°
2026-04-23 03:10 45.35336 -122.54955 6494 ft 263 kts 30°
2026-04-23 03:11 45.36879 -122.53565 6226 ft 261 kts 30°
2026-04-23 03:11 45.38392 -122.52201 6088 ft 254 kts 30°
2026-04-23 03:11 45.39868 -122.50870 5935 ft 248 kts 30°
2026-04-23 03:11 45.41330 -122.49552 5811 ft 251 kts 30°
2026-04-23 03:12 45.42750 -122.48063 5649 ft 259 kts 48°
2026-04-23 03:12 45.43553 -122.45783 5491 ft 261 kts 82°
2026-04-23 03:12 45.43391 -122.43300 5335 ft 253 kts 114°
2026-04-23 03:12 45.43213 -122.42702 5310 ft 249 kts 119°
2026-04-23 03:13 45.42403 -122.40569 5160 ft 242 kts 123°
2026-04-23 03:13 45.41578 -122.38507 4997 ft 237 kts 124°
2026-04-23 03:13 45.41012 -122.36318 4761 ft 239 kts 94°
2026-04-23 03:13 45.41356 -122.34068 4611 ft 231 kts 61°
2026-04-23 03:14 45.42410 -122.32416 4378 ft 222 kts 31°
2026-04-23 03:14 45.43776 -122.31554 4177 ft 211 kts 10°
2026-04-23 03:14 45.45190 -122.31113 4002 ft 206 kts
2026-04-23 03:14 45.46587 -122.31120 3800 ft 198 kts 335°
2026-04-23 03:15 45.47691 -122.32143 3660 ft 186 kts 305°
2026-04-23 03:15 45.48358 -122.33653 3531 ft 176 kts 295°
2026-04-23 03:15 45.48975 -122.35129 3356 ft 169 kts 296°
2026-04-23 03:15 45.49557 -122.36564 3205 ft 164 kts 295°
2026-04-23 03:16 45.50118 -122.37980 3050 ft 168 kts 295°
2026-04-23 03:16 45.50686 -122.39430 2884 ft 166 kts 294°
2026-04-23 03:16 45.51788 -122.42269 2503 ft 161 kts 294°
2026-04-23 03:17 45.52318 -122.43628 2375 ft 157 kts 294°
2026-04-23 03:17 45.52853 -122.45011 2170 ft 159 kts 295°
2026-04-23 03:17 45.53379 -122.46365 1964 ft 151 kts 295°
2026-04-23 03:17 45.53881 -122.47636 1743 ft 146 kts 295°
2026-04-23 03:18 45.54367 -122.48888 1580 ft 140 kts 294°
2026-04-23 03:18 45.54834 -122.50103 1386 ft 140 kts 294°
2026-04-23 03:18 45.55308 -122.51336 1212 ft 144 kts 293°
2026-04-23 03:18 45.55788 -122.52582 1017 ft 143 kts 294°
2026-04-23 03:19 45.56279 -122.53850 854 ft 147 kts 295°
2026-04-23 03:19 45.56774 -122.55110 621 ft 141 kts 296°
2026-04-23 03:19 45.57247 -122.56327 401 ft 143 kts 296°
2026-04-23 03:19 45.57730 -122.57559 209 ft 141 kts 296°
2026-04-23 03:20 45.58203 -122.58764 44 ft 134 kts 294°
2026-04-23 03:20 45.58602 -122.59798 29 ft 101 kts 299°
2026-04-23 03:20 45.58880 -122.60512 30 ft 69 kts 299°
2026-04-23 03:20 45.59084 -122.61036 27 ft 57 kts 300°
2026-04-23 03:21 45.59188 -122.61296 29 ft 18 kts 309°
2026-04-23 03:21 45.59298 -122.61323 26 ft 18 kts 28°
2026-04-23 03:21 45.59331 -122.61185 27 ft 17 kts 118°
2026-04-23 03:21 45.59275 -122.61041 27 ft 16 kts 118°
2026-04-23 03:22 45.59221 -122.60902 27 ft 16 kts 119°
2026-04-23 03:22 45.59169 -122.60769 27 ft 15 kts 119°
2026-04-23 03:22 45.59117 -122.60643 27 ft 14 kts 126°
2026-04-23 03:22 45.59069 -122.60527 27 ft 14 kts 82°
2026-04-23 03:23 45.59124 -122.60421 27 ft 13 kts 51°
2026-04-23 03:23 45.59139 -122.60299 27 ft 13 kts 89°
2026-04-23 03:23 45.59139 -122.60167 27 ft 16 kts 90°
2026-04-23 03:23 45.59140 -122.59988 27 ft 18 kts 90°
2026-04-23 03:24 45.59099 -122.59830 28 ft 7 kts 118°
2026-04-23 03:24 45.59076 -122.59768 28 ft 7 kts 118°
2026-04-23 03:24 45.59053 -122.59708 28 ft 7 kts 118°
2026-04-23 03:24 45.59038 -122.59671 28 ft 0 kts 121°
2026-04-23 03:25 45.59031 -122.59656 28 ft 5 kts 127°
2026-04-23 03:25 45.58998 -122.59659 28 ft 5 kts 211°
2026-04-23 03:25 45.58972 -122.59681 28 ft 3 kts 209°
2026-04-23 03:25 45.58962 -122.59689 28 ft 0 kts 208°
2026-04-23 03:26 45.58960 -122.59691 28 ft 0 kts 208°
2026-04-23 03:26 45.58946 -122.59637 28 ft 0 kts 209°